Wind_Speed
4 4 4 5 5 5 5 6 6 6 6 6 5 5 4 3 2 1 1 2 3 3 4 4 5 5 5 5 4 4 3 3 3 2 2 2 3 3 4 3 3 3 3
5 5 5 5 5 6 6 7 7 7 7 7 6 6 5 4 3 2 1 1 2 2 3 3 4 4 4 4 4 3 2 2 2 2 2 2 2 3 3 3 3 3 3
6 6 5 5 5 6 7 8 8 9 8 8 7 7 6 5 4 3 3 3 2 3 3 3 3 4 3 3 3 2 2 2 1 1 1 1 1 2 2 2 2 2 2
6 6 6 6 6 7 8 9 9 10 9 9 8 8 7 7 6 5 5 4 4 4 4 4 4 4 3 3 3 2 2 1 1 1 1 0 0 1 1 1 1 1 1
6 7 7 7 7 8 9 10 11 11 10 10 10 9 9 8 8 7 7 6 6 6 5 5 5 5 4 4 3 2 2 2 2 2 2 1 1 1 1 1 1 0 0
7 8 8 8 8 9 10 10 11 12 12 11 11 10 10 9 9 9 9 8 8 7 7 6 6 6 5 5 4 4 3 3 3 3 3 2 2 2 2 2 2 2 1
8 8 9 9 10 10 11 12 12 13 14 13 12 12 11 11 11 11 11 11 11 10 9 8 8 7 7 6 6 5 5 5 5 5 4 4 4 4 3 3 3 3 2
9 8 10 10 11 12 13 14 14 14 15 15 14 14 13 13 13 13 13 13 13 12 11 11 10 9 9 8 8 7 7 7 7 6 6 6 6 6 5 4 4 4 3
11 10 11 11 13 14 14 14 15 15 16 16 15 15 15 15 15 15 15 15 15 14 13 13 12 11 11 10 10 9 9 9 9 9 8 8 8 7 7 6 6 5 5
13 13 13 14 14 15 15 15 16 16 16 17 17 17 17 17 16 17 16 16 16 16 15 15 14 13 12 12 12 11 11 11 11 11 10 10 10 9 9 8 8 7 6
15 15 15 15 15 15 15 16 17 18 18 18 18 18 18 18 18 19 19 19 18 18 17 17 16 15 15 14 14 13 13 13 13 13 13 12 11 11 10 10 10 9 8
16 16 16 16 17 17 17 17 18 19 19 19 19 19 19 19 19 20 20 20 20 20 19 18 18 17 16 16 16 15 15 15 15 15 15 14 13 13 12 12 12 11 11
18 17 17 17 17 18 19 18 19 20 20 20 20 20 20 20 20 20 21 21 20 20 20 19 19 18 17 18 18 17 16 16 16 17 17 16 16 15 15 14 14 13 13
19 18 18 18 19 19 19 19 20 20 21 22 22 22 22 22 21 21 20 20 21 21 21 20 20 20 19 19 19 18 17 18 18 18 17 18 18 17 16 16 16 16 15
21 20 19 20 20 20 19 20 21 21 22 22 23 23 23 23 23 23 23 23 22 23 22 21 21 21 20 20 21 21 20 19 20 20 19 19 19 18 18 18 18 18 17
22 21 21 22 22 22 22 22 22 22 23 24 24 25 25 24 24 25 24 25 25 25 25 24 23 22 22 21 22 22 21 21 21 21 21 21 20 20 19 19 19 19 19
23 23 23 23 23 23 23 23 23 24 24 25 26 27 26 26 26 26 25 24 25 26 26 25 24 24 23 23 23 24 23 23 22 23 23 22 22 21 21 21 21 21 21
24 24 24 24 24 24 24 24 25 26 25 26 27 28 28 27 28 27 26 24 25 26 27 27 26 25 24 25 24 24 24 24 24 24 24 23 23 23 22 22 22 22 22
24 24 24 25 24 24 24 24 25 26 26 27 27 27 27 27 28 28 27 26 26 26 27 28 28 26 26 26 26 26 25 26 25 25 25 25 24 24 24 23 24 24 24
23 24 25 25 25 25 24 25 25 26 27 27 27 27 27 28 29 28 28 28 28 28 27 28 29 28 28 28 27 27 27 26 27 26 26 26 26 26 26 26 26 26 26
23 24 24 24 25 25 25 24 25 26 27 27 27 28 28 28 29 29 29 29 29 29 29 29 29 29 29 29 29 28 28 28 28 28 27 27 28 29 29 30 30 30 29
25 25 25 24 25 25 25 25 24 25 27 28 28 29 30 30 30 30 31 30 29 30 30 29 30 31 31 31 31 31 30 30 31 30 30 31 31 31 31 32 33 33 32
26 26 26 25 26 25 25 26 26 25 26 27 28 29 29 30 30 30 31 31 30 30 29 30 30 31 31 32 32 32 31 31 32 32 32 33 33 33 33 33 34 34 34
27 27 27 27 27 27 26 26 26 27 26 26 27 28 28 28 29 29 30 31 31 30 29 29 29 30 31 31 33 34 34 33 34 34 34 34 35 35 35 34 34 35 35
26 27 27 27 28 28 28 27 27 27 27 27 27 27 27 27 28 28 29 29 30 30 30 30 30 31 31 32 34 35 35 35 35 35 36 36 36 36 36 35 36 36 36
25 26 26 27 28 29 29 28 28 28 28 28 28 28 28 28 28 28 28 29 30 30 31 32 32 32 33 34 34 35 36 36 36 36 37 37 36 36 37 37 37 36 37
Wind_Direction
190 192 192 191 201 207 215 224 227 223 227 225 219 209 202 193 174 147 65 43 35 30 31 29 24 21 17 16 12 12 10 11 9 16 27 42 52 50 45 48 51 49 47
205 199 199 200 208 213 220 227 230 233 236 234 230 225 221 217 209 215 253 306 346 353 0 5 4 2 5 9 8 6 6 8 0 4 25 45 58 56 49 51 54 50 46
220 213 211 214 217 221 227 232 236 237 237 238 236 234 230 227 228 235 248 267 293 308 318 328 333 336 343 350 354 353 349 351 339 339 9 42 65 66 59 55 54 53 54
234 230 228 227 225 228 231 235 238 239 239 239 239 237 236 236 238 242 251 264 275 284 290 296 302 307 312 321 327 327 318 313 305 301 299 274 214 102 60 36 50 57 55
247 245 241 236 231 233 236 239 241 242 242 242 243 242 240 240 242 245 250 259 264 269 273 277 282 285 285 289 294 291 288 283 279 272 259 251 237 231 238 254 242 240 286
255 252 249 243 239 238 242 244 244 245 244 244 245 244 242 243 243 246 250 253 257 260 262 266 271 272 274 273 273 269 264 262 259 257 251 244 243 244 241 238 236 233 233
260 258 255 253 252 248 245 245 246 246 245 245 245 245 245 246 246 246 250 252 253 254 255 259 262 263 265 263 261 259 254 252 250 250 248 244 241 244 246 243 236 232 228
266 265 263 262 259 256 249 246 245 246 246 245 246 246 247 248 248 250 252 254 254 255 254 256 259 260 260 258 256 254 250 247 243 242 245 246 242 243 244 241 236 235 232
270 269 266 263 260 259 254 250 248 246 245 245 247 247 248 250 249 250 253 254 254 254 254 256 257 258 257 256 253 251 249 247 243 239 240 244 244 243 241 241 239 238 235
270 272 269 264 262 260 256 255 253 249 247 248 249 249 250 252 252 251 252 254 255 253 254 256 257 258 256 253 251 251 250 248 243 239 238 240 241 242 241 242 241 238 239
271 273 273 268 264 263 260 257 254 250 250 251 253 252 254 256 256 254 253 255 256 255 257 257 257 258 256 253 253 252 249 247 244 240 239 238 238 240 241 241 242 241 241
270 273 276 274 267 268 266 260 254 251 252 254 256 256 255 257 258 257 255 255 256 257 258 259 258 257 256 252 251 252 250 247 245 241 239 239 239 239 240 241 242 243 244
271 273 277 275 273 273 270 264 259 255 253 256 259 259 258 258 258 258 257 256 256 256 257 260 259 257 256 255 253 251 250 247 246 243 241 241 242 242 242 243 244 244 245
277 275 274 276 276 275 271 268 265 261 260 258 260 260 259 259 260 260 260 259 257 256 257 257 258 256 255 255 253 250 249 249 248 246 244 244 245 246 245 245 245 244 246
277 277 277 277 275 273 271 270 266 262 260 261 263 262 261 261 262 264 263 262 262 260 259 258 258 256 254 254 253 250 250 249 248 248 247 245 246 248 248 247 247 247 249
278 279 277 276 274 272 271 269 266 263 262 262 261 260 262 261 262 266 264 263 264 261 260 259 258 255 255 255 254 251 250 249 247 247 247 247 247 248 250 250 250 250 251
278 279 278 276 274 273 273 270 266 265 265 263 262 261 262 262 261 264 264 264 262 260 260 259 257 255 255 254 254 251 249 248 248 248 248 248 247 248 249 250 251 251 253
277 277 277 276 275 274 274 272 270 269 265 263 264 264 263 262 260 261 264 264 262 259 258 258 258 256 255 255 254 250 248 247 248 248 248 248 249 250 250 250 252 254 255
277 277 277 276 275 275 275 275 272 270 266 264 264 265 262 261 261 260 261 261 262 262 259 256 255 255 255 256 253 251 249 248 249 249 249 248 249 251 250 250 251 255 256
276 277 276 275 274 273 274 274 275 273 270 266 264 263 262 261 260 261 260 262 262 260 258 255 254 255 254 254 252 251 250 250 249 250 250 249 247 248 250 250 251 254 257
275 276 276 275 274 273 273 273 273 273 272 268 265 263 262 260 259 259 260 261 261 261 258 257 256 255 253 250 250 249 250 250 248 248 249 249 248 249 251 251 253 255 257
273 275 275 275 273 272 271 273 272 271 272 269 265 265 264 260 258 257 259 259 260 260 257 258 256 254 252 250 249 249 250 250 249 249 249 249 250 251 252 252 254 256 258
274 273 271 273 273 272 271 271 272 271 272 270 265 264 264 260 258 258 256 256 257 258 256 256 256 253 251 250 249 250 250 251 249 250 250 249 249 251 252 253 253 256 259
274 272 270 271 271 272 271 271 270 270 271 271 267 266 265 262 260 259 257 256 255 254 253 253 254 250 250 250 249 250 250 251 250 251 251 252 251 252 254 255 256 258 259
275 273 271 271 271 272 272 272 271 271 272 272 272 269 266 263 263 262 259 258 256 254 252 251 252 250 252 252 252 251 251 250 251 252 253 254 253 254 255 257 259 258 260
276 274 273 271 271 273 273 272 271 272 273 272 271 271 268 265 263 261 259 257 256 256 254 253 252 253 253 254 252 251 251 251 252 253 254 255 255 255 256 257 259 259 261
Height
5908 5908 5908 5908 5908 5908 5909 5909 5910 5911 5911 5911 5911 5911 5911 5911 5911 5911 5911 5911 5911 5911 5911 5911 5911 5911 5911 5910 5910 5910 5910 5910 5910 5909 5909 5909 5908 5908 5908 5908 5907 5907 5906
5907 5907 5907 5907 5907 5907 5908 5909 5909 5910 5910 5910 5910 5910 5910 5910 5910 5911 5911 5911 5911 5911 5911 5910 5910 5910 5910 5910 5910 5910 5910 5909 5909 5909 5909 5909 5908 5908 5908 5908 5908 5907 5907
5905 5905 5905 5906 5906 5907 5907 5908 5908 5909 5909 5909 5909 5909 5909 5909 5910 5910 5910 5910 5910 5910 5910 5910 5909 5910 5909 5909 5909 5909 5909 5909 5909 5909 5909 5908 5908 5908 5908 5908 5908 5908 5907
5903 5903 5904 5904 5905 5905 5906 5906 5907 5907 5908 5908 5908 5908 5908 5908 5908 5908 5908 5908 5909 5909 5908 5908 5908 5908 5908 5908 5908 5908 5908 5908 5908 5908 5908 5908 5908 5908 5908 5908 5908 5908 5907
5901 5902 5902 5902 5903 5903 5904 5905 5905 5905 5906 5906 5906 5906 5907 5907 5907 5907 5907 5907 5907 5907 5907 5907 5907 5907 5907 5907 5907 5907 5907 5908 5907 5907 5907 5907 5907 5907 5908 5908 5908 5907 5907
5899 5899 5900 5900 5901 5901 5902 5903 5903 5903 5904 5904 5904 5905 5905 5905 5905 5905 5905 5905 5905 5906 5906 5906 5906 5906 5906 5906 5906 5906 5906 5906 5906 5906 5906 5907 5907 5907 5907 5907 5907 5907 5907
5897 5897 5898 5898 5899 5899 5899 5900 5900 5901 5901 5902 5902 5902 5903 5903 5903 5903 5903 5903 5903 5904 5904 5904 5904 5904 5904 5904 5904 5905 5905 5905 5905 5905 5905 5906 5906 5906 5906 5906 5906 5906 5906
5895 5895 5896 5896 5896 5896 5897 5897 5898 5898 5898 5899 5899 5899 5900 5900 5900 5900 5901 5901 5901 5901 5902 5902 5902 5902 5902 5902 5902 5903 5903 5903 5903 5904 5904 5904 5905 5905 5905 5905 5905 5906 5905
5893 5893 5893 5893 5893 5893 5894 5894 5895 5895 5896 5896 5896 5896 5897 5897 5897 5898 5898 5898 5899 5899 5899 5899 5899 5899 5900 5900 5900 5901 5901 5901 5901 5901 5902 5903 5903 5903 5904 5904 5904 5904 5904
5890 5890 5890 5890 5891 5891 5891 5891 5892 5892 5892 5893 5893 5893 5893 5894 5894 5894 5895 5895 5895 5896 5896 5896 5897 5897 5897 5897 5898 5898 5898 5899 5899 5899 5900 5900 5901 5901 5902 5902 5902 5902 5903
5887 5887 5888 5888 5888 5887 5887 5888 5888 5888 5889 5889 5889 5889 5890 5890 5890 5890 5891 5891 5892 5892 5893 5893 5894 5894 5894 5894 5895 5895 5895 5896 5896 5896 5897 5898 5898 5899 5899 5900 5900 5900 5901
5884 5884 5884 5884 5884 5884 5884 5883 5884 5884 5884 5885 5885 5885 5886 5886 5886 5886 5886 5886 5887 5888 5889 5889 5890 5890 5890 5890 5891 5891 5892 5893 5893 5894 5894 5895 5896 5896 5897 5897 5898 5898 5899
5880 5880 5880 5880 5880 5880 5879 5879 5879 5880 5880 5881 5881 5881 5881 5881 5882 5882 5882 5882 5883 5884 5884 5885 5886 5886 5886 5887 5887 5888 5888 5889 5889 5890 5891 5892 5893 5893 5894 5894 5895 5896 5896
5876 5876 5876 5876 5876 5875 5875 5875 5875 5875 5875 5875 5876 5876 5876 5877 5877 5878 5878 5878 5878 5879 5879 5880 5881 5882 5882 5883 5883 5884 5884 5885 5886 5887 5888 5888 5889 5890 5891 5891 5892 5893 5893
5872 5872 5872 5871 5871 5871 5871 5871 5871 5870 5870 5870 5871 5872 5872 5872 5872 5873 5873 5873 5873 5874 5875 5876 5876 5877 5878 5878 5879 5879 5880 5881 5882 5883 5884 5885 5886 5887 5887 5888 5888 5889 5890
5867 5867 5867 5867 5866 5866 5866 5866 5866 5865 5865 5865 5866 5866 5866 5866 5866 5867 5868 5868 5869 5869 5870 5870 5871 5872 5873 5874 5874 5875 5876 5877 5878 5879 5879 5880 5881 5882 5883 5884 5884 5885 5886
5862 5862 5861 5861 5861 5861 5861 5861 5860 5860 5860 5860 5860 5860 5860 5861 5861 5861 5862 5862 5862 5863 5864 5865 5866 5867 5868 5868 5869 5870 5871 5872 5873 5874 5875 5876 5877 5878 5879 5879 5880 5881 5881
5857 5856 5856 5856 5855 5855 5855 5855 5854 5854 5854 5854 5854 5854 5854 5854 5855 5855 5856 5856 5856 5857 5858 5859 5860 5861 5862 5863 5864 5865 5866 5867 5868 5869 5870 5871 5872 5873 5874 5874 5875 5876 5877
5851 5851 5850 5850 5849 5849 5849 5848 5848 5848 5847 5847 5847 5847 5847 5847 5848 5849 5849 5850 5850 5851 5852 5853 5854 5855 5856 5857 5858 5859 5861 5862 5863 5864 5865 5866 5866 5867 5868 5869 5870 5871 5872
5845 5845 5844 5843 5843 5843 5842 5842 5842 5841 5841 5840 5840 5840 5841 5841 5841 5842 5842 5843 5844 5845 5846 5846 5848 5849 5850 5851 5852 5854 5855 5856 5857 5858 5859 5860 5861 5862 5863 5864 5864 5865 5866
5840 5839 5838 5837 5837 5836 5836 5836 5835 5835 5834 5834 5834 5833 5833 5834 5834 5835 5836 5837 5837 5838 5839 5839 5841 5842 5843 5845 5846 5847 5849 5850 5851 5852 5853 5854 5855 5856 5857 5857 5858 5859 5860
5834 5833 5832 5831 5830 5830 5830 5829 5828 5828 5827 5827 5827 5826 5826 5827 5827 5828 5829 5830 5830 5831 5832 5833 5833 5835 5836 5838 5839 5840 5842 5844 5844 5845 5846 5848 5849 5849 5850 5851 5852 5853 5853
5827 5826 5826 5825 5824 5824 5823 5823 5822 5821 5821 5820 5820 5819 5819 5819 5820 5820 5821 5822 5822 5823 5824 5825 5826 5827 5828 5830 5831 5833 5834 5836 5837 5838 5839 5840 5841 5842 5842 5843 5844 5845 5845
5820 5819 5819 5818 5818 5817 5817 5816 5815 5815 5814 5814 5813 5813 5812 5812 5812 5812 5813 5814 5814 5815 5816 5817 5818 5819 5821 5822 5823 5825 5827 5828 5829 5830 5831 5832 5833 5834 5835 5835 5836 5837 5837
5813 5812 5812 5811 5811 5810 5810 5809 5809 5808 5807 5806 5806 5806 5806 5805 5805 5805 5805 5806 5806 5808 5809 5810 5811 5812 5813 5814 5815 5816 5818 5819 5821 5822 5823 5824 5825 5826 5827 5827 5828 5828 5829
5807 5805 5805 5804 5803 5803 5802 5802 5801 5801 5800 5799 5799 5798 5798 5798 5798 5798 5798 5798 5799 5800 5801 5802 5803 5804 5805 5806 5807 5808 5809 5811 5812 5814 5815 5815 5816 5817 5818 5819 5819 5820 5820